FW9688 Weather Reports


Display with metric or nautical units.
time (UTC)temp
F
wind
direction
speed
MPH
gust
MPH
rain 1hr
in
rain 24hr
in
rain mn
in
humidity
%
barometer
mb
20260510131547 69 360 3.0 7.0 0.00 0.00 0.00 43 1011.2
20260510130044 68 173 5.0 9.0 0.00 0.00 0.00 45 1010.7
20260510124544 68 360 2.0 6.0 0.00 0.00 0.00 46 1010.5
20260510123041 66 360 5.0 9.0 0.00 0.00 0.00 47 1010.5
20260510121537 69 360 1.0 4.0 0.00 0.00 0.00 44 1010.1
20260510120047 68 360 1.0 4.0 0.00 0.00 0.00 43 1010.1
20260510114543 63 360 1.0 5.0 0.00 0.00 0.00 50 1009.8
20260510113041 63 360 4.0 6.0 0.00 0.00 0.00 43 1010.0
20260510111537 69 360 2.0 10.0 0.00 0.00 0.00 38 1010.0
20260510110037 68 360 1.0 11.0 0.00 0.00 0.00 38 1009.9
20260510104537 67 360 5.0 9.0 0.00 0.00 0.00 38 1009.7
20260510103051 67 360 5.0 9.0 0.00 0.00 0.00 38 1009.5
20260510101548 70 360 1.0 6.0 0.00 0.00 0.00 35 1009.5
20260510100041 70 168 2.0 8.0 0.00 0.00 0.00 35 1009.4
20260510094543 71 360 1.0 4.0 0.00 0.00 0.00 33 1009.4
20260510093045 72 360 1.0 6.0 0.00 0.00 0.00 31 1009.5
20260510091544 69 360 4.0 13.0 0.00 0.00 0.00 33 1009.7
20260510090053 70 360 13.0 16.0 0.00 0.00 0.00 31 1009.4
20260510084541 71 360 8.0 12.0 0.00 0.00 0.00 29 1009.5
20260510083041 72 360 10.0 17.0 0.00 0.00 0.00 28 1009.2
20260510081543 73 360 13.0 18.0 0.00 0.00 0.00 27 1009.2
20260510080048 74 360 14.0 20.0 0.00 0.00 0.00 26 1009.1
20260510074537 75 360 14.0 21.0 0.00 0.00 0.00 25 1009.2
20260510073044 75 360 12.0 19.0 0.00 0.00 0.00 25 1009.3
20260510071542 75 360 13.0 18.0 0.00 0.00 0.00 26 1009.5
20260510070047 75 360 11.0 15.0 0.00 0.00 0.00 26 1009.7
20260510064537 75 360 10.0 15.0 0.00 0.00 0.00 25 1009.6
20260510063045 76 360 9.0 14.0 0.00 0.00 0.00 25 1009.8
20260510061537 76 360 9.0 12.0 0.00 0.00 0.00 24 1009.9
20260510060047 77 360 10.0 15.0 0.00 0.00 0.00 24 1009.9
20260510054556 78 360 10.0 14.0 0.00 0.00 0.00 23 1009.9
20260510053041 78 360 11.0 17.0 0.00 0.00 0.00 23 1009.7
20260510051545 79 360 11.0 17.0 0.00 0.00 0.00 22 1009.9
20260510050037 79 360 12.0 17.0 0.00 0.00 0.00 21 1010.1
20260510044547 80 360 12.0 22.0 0.00 0.00 0.00 21 1010.0
20260510043044 80 360 12.0 18.0 0.00 0.00 0.00 20 1009.7
20260510041600 81 360 14.0 23.0 0.00 0.00 0.00 18 1009.6
20260510040042 82 360 15.0 22.0 0.00 0.00 0.00 16 1009.5
20260510034539 81 360 13.0 17.0 0.00 0.00 0.00 15 1009.4
20260510033050 81 360 13.0 16.0 0.00 0.00 0.00 14 1009.3
20260510031552 81 360 12.0 16.0 0.00 0.00 0.00 14 1009.1
20260510030042 82 360 13.0 16.0 0.00 0.00 0.00 14 1009.3
20260510024558 82 360 12.0 15.0 0.00 0.00 0.00 14 1009.2
20260510023038 82 360 13.0 16.0 0.00 0.00 0.00 14 1008.9
20260510021538 83 360 9.0 12.0 0.00 0.00 0.00 14 1008.9
20260510020044 85 360 8.0 12.0 0.00 0.00 0.00 13 1008.9
20260510014552 86 360 6.0 10.0 0.00 0.00 0.00 13 1008.5
20260510013057 88 360 6.0 10.0 0.00 0.00 0.00 12 1008.6
20260510011540 89 360 5.0 11.0 0.00 0.00 0.00 11 1008.3
20260510010038 90 360 6.0 11.0 0.00 0.00 0.00 10 1008.3
20260510004545 91 360 5.0 16.0 0.00 0.00 0.00 10 1008.5
20260510003045 91 360 9.0 13.0 0.00 0.00 0.00 10 1008.3
20260510001542 92 360 11.0 14.0 0.00 0.00 0.00 9 1008.6
20260510000046 92 360 11.0 20.0 0.00 0.00 0.00 9 1008.9
20260509234543 92 360 14.0 19.0 0.00 0.00 0.00 9 1008.9
20260509233038 92 360 12.0 16.0 0.00 0.00 0.00 9 1008.8
20260509231550 92 360 11.0 22.0 0.00 0.00 0.00 9 1008.8
20260509230057 92 360 14.0 20.0 0.00 0.00 0.00 9 1009.0
20260509224543 92 360 8.0 20.0 0.00 0.00 0.00 9 1009.1
20260509223049 92 360 12.0 18.0 0.00 0.00 0.00 10 1009.5
20260509221545 92 360 8.0 17.0 0.00 0.00 0.00 10 1009.6
20260509220041 92 360 7.0 11.0 0.00 0.00 0.00 10 1009.7
20260509214540 92 360 7.0 16.0 0.00 0.00 0.00 10 1009.9
20260509213046 92 360 12.0 17.0 0.00 0.00 0.00 11 1009.9
20260509211550 91 360 12.0 20.0 0.00 0.00 0.00 11 1010.2
20260509210052 91 360 12.0 20.0 0.00 0.00 0.00 11 1010.6
20260509204543 91 360 6.0 15.0 0.00 0.00 0.00 12 1010.6
20260509203041 90 360 14.0 24.0 0.00 0.00 0.00 12 1011.1
20260509201538 90 360 9.0 25.0 0.00 0.00 0.00 13 1011.3
20260509200046 89 360 9.0 21.0 0.00 0.00 0.00 13 1011.6
20260509194543 89 360 11.0 20.0 0.00 0.00 0.00 13 1011.8
20260509193044 89 360 14.0 23.0 0.00 0.00 0.00 13 1011.7
20260509191543 89 360 12.0 20.0 0.00 0.00 0.00 13 1011.9
20260509190042 88 360 11.0 22.0 0.00 0.00 0.00 14 1011.9
20260509184542 87 360 10.0 25.0 0.00 0.00 0.00 15 1012.0
20260509183040 87 360 15.0 20.0 0.00 0.00 0.00 16 1012.7
20260509181541 85 360 12.0 23.0 0.00 0.00 0.00 17 1012.7
20260509180041 86 360 14.0 21.0 0.00 0.00 0.00 17 1013.2
20260509174539 85 360 16.0 22.0 0.00 0.00 0.00 18 1013.3
20260509173100 84 360 11.0 15.0 0.00 0.00 0.00 19 1013.2
20260509171541 83 360 6.0 19.0 0.00 0.00 0.00 21 1013.5
20260509170053 82 360 12.0 20.0 0.00 0.00 0.00 22 1013.6
20260509164541 82 360 10.0 16.0 0.00 0.00 0.00 22 1013.6
20260509163041 81 360 8.0 14.0 0.00 0.00 0.00 23 1013.4
20260509161543 79 360 10.0 14.0 0.00 0.00 0.00 24 1013.6
20260509160038 77 360 9.0 14.0 0.00 0.00 0.00 26 1013.6
20260509154543 76 360 6.0 15.0 0.00 0.00 0.00 29 1013.5
20260509153042 75 360 8.0 15.0 0.00 0.00 0.00 30 1013.7
20260509151553 75 360 10.0 15.0 0.00 0.00 0.00 30 1013.7
20260509150046 74 360 10.0 13.0 0.00 0.00 0.00 30 1013.5
20260509144537 74 360 7.0 14.0 0.00 0.00 0.00 31 1013.6
20260509143053 73 360 8.0 12.0 0.00 0.00 0.00 33 1013.8
20260509141548 72 360 8.0 12.0 0.00 0.00 0.00 34 1013.2
20260509140046 70 360 6.0 12.0 0.00 0.00 0.00 36 1013.4
20260509134545 69 360 6.0 14.0 0.00 0.00 0.00 39 1013.5
20260509133038 68 360 9.0 13.0 0.00 0.00 0.00 41 1013.5